Погода в Суре

Погода в Суре : погода сейчас, прогноз погоды и архив. Всё, что Вы хотите узнать о погоде в Суре!

Поиск расширенной информации на нашем сайте:

Другие новости

Новости СМИ2

Главная страница сайта

Новости сайта

03.07.2017

Напоминаем, что на нашем специализированном сайте Метеоцентр.Азия вы можете получить высокодетализированные автоматические прогнозы погоды по пунктам России, СНГ и мира в авиационном формате (включающие направление и скорость ветра, видимость, явления погоды, количество и форму облачности, нижнюю и верхнюю границу облачности).


Погода в Суре - сегодня

Время (UTC), дата Ветер
(°,м/с) 
Видим.   Явления Облачность Т
(°С)
Тd
(°С)
f(%) Тe
(°С)
Pmin
(гПа)
dP
(гПа)
Po
(мм)
O2
(г/м3)
Тmin Tmax R s Состояние
почвы
03 17.06.18 130 (ЮВ) 20000 м    ясно 
+13.2 +6.2 62 +14  1018.6  758  290  +5.3        сухая 
06 17.06.18 080 (В) 20000 м    1/0 верхняя 
[Ci fib]
+22.7 +7.3 37 +23  1017.6  -0.8  758  281           
09 17.06.18 тихо ()   20000 м    6/5 1000 м верхняя 
[Cu med, cong|Cc]
+26.5 +6.9 29 +27  1017  -0.4  757  277           
12 17.06.18 340 (С) 20000 м    9/8 1000 м средняя 
[Cu Sc|Ac lent]
+25 +9.7 38 +26  1016  -1  757  278           
18 17.06.18 320 (СЗ) 20000 м    8/3 1000 м кучево-дожд., средняя, верхняя 
[Cb cap|Ac lent|Ci fib]
+21.8 +11.6 52 +25  1015.6  756  280           
21 17.06.18 310 (СЗ) 20000 м  местами туман поземный  1/1 2000 м средняя 
[Ac trans]
+13.8 +11.8 88 +17  1016.2  0.4  757  288           
06 18.06.18 020 (С) 20000 м    5/4 1000 м кучево-дожд., средняя 
[Cb cap|Ac cast]
+23.8 +8.8 38 +24  1015.8  -0.5  756  279           
09 18.06.18 030 (СВ) 20000 м    4/4 1000 м 
[Cu med, cong]
+25.9 +6.3 29 +26  1014.7  -1.1  756  277           
12 18.06.18 010 (С) 20000 м    4/4 1000 м 
[Cu med, cong]
+26.7 +4.4 24 +27  1013.5  -1.2  755  276           
18 18.06.18 040 (СВ) 20000 м    3/1 1000 м верхняя 
[Cu med, cong|Ci fib]
+20.8 +3.1 31 +21  1011.8  -0.8  753  282           
21 18.06.18 160 (Ю) 20000 м    3/0 верхняя 
[Ci fib]
+11.5 +8.1 80 +13  1011.7  -0.3  753  290           
00 19.06.18 170 (Ю) 20000 м    4/1 1000 м верхняя 
[Cu Sc|Ci fib]
+8.2 +7.7 97 +9  1010.8  -1  752  293           
06 19.06.18 130 (ЮВ) 20000 м    9/1 1000 м средняя 
[Cu med, cong|Ac lent]
+22.1 +10.2 47 +24  1007  -2  750  278           
09 19.06.18 080 (В) 20000 м    8/3 600 м кучево-дожд., верхняя 
[Cb cap|Ci]
+26.5 +11 38 +29  1004.1  -2.7  748  273           
21 19.06.18 130 (ЮВ) 20000 м  в посл. час гроза{ливн. осадки}  9/6 600 м кучево-дожд., средняя 
[Cb cap|Ac inh]
+14.9 +14.9 100 +25  996.9  -3  742  280           
03 20.06.18 160 (Ю) 4000 м  слаб. ливневой дождь  10/10 840 м кучево-дожд. 
[Cb cap]
+14.9 +14.9 100 +25  992.1  -1.9  739  279  +13.6    16    мокрая 
09 20.06.18 220 (ЮЗ) 4000 м  слаб. ливневой дождь  9/8 660 м кучево-дожд., средняя 
[Cb cap|As trans]
+14.8 +14.4 97 +23  987.8  -1.6  735  278           
12 20.06.18 240 (ЮЗ) 5-10{10}  10 км  в посл. час ливневой дождь  10/10 450 м кучево-дожд. 
[Cb cap]
+15.1 +13.3 89 +21  987.8  0.1  735  278           
15 20.06.18 250 (З) 4{10}  4000 м  слаб. ливневой дождь  10/10 270 м кучево-дожд. 
[Cb cap]
+12.8 +12.7 99 +17  987.9  735  281    +16.4  11     
03 21.06.18 310 (СЗ) 10 км  {ливн. осадки}  10/10 240 м 
[St]
+13.3 +13.3 100 +19  986.5  0.9  734  279  +11.6      мокрая 
15 21.06.18 300 (СЗ) 5{11}  20000 м  в посл. час ливневой дождь  10/10 400 м кучево-дожд. 
[Cb cap]
+13.2 +12.8 97 +17  999.3  3.3  744  283    +14.6     
03 22.06.18 290 (З) 10 км    10/10 240 м 
[St]
+10.9 +10.8 99 +12  1006.4  1.4  749  288  +9.2      мокрая 
06 22.06.18 330 (СЗ) 20000 м    8/8 450 м 
[Sc]
+14.3 +12.2 87 +18  1007.8  1.4  750  285           
09 22.06.18 310 (СЗ) 20000 м    6/4 1000 м верхняя 
[Cu med, cong|Ci fib]
+19.3 +8.4 49 +20  1008  0.4  751  281           
12 22.06.18 340 (С) 20000 м    3/1 1000 м верхняя 
[Cu hum|Ci fib]
+21.7 +7.2 39 +22  1007.7  0.4  750  279           
Время (UTC), дата Ветер
(°,м/с) 
Видим.   Явления Облачность Т
(°С)
Тd
(°С)
f(%) Тe
(°С)
Pmin
(гПа)
dP
(гПа)
Po
(мм)
O2
(г/м3)
Тmin Tmax R s Состояние
почвы

Для получения пояснительной информации подведите курсор к названию столбца.

ПОГОДА в Суре - архив

Всё, что Вы хотите узнать о погоде в Суре - удобно и подробно!

Выберите нужную дату (начиная с 1 января 2015* года) и нажмите кнопку "Найти".
Будут отображены архивные сводки погоды по пункту Сура, начиная с указанной даты.


Отображать данные в формате CSV (для использования в таблицах Excel)


Внимание! Наш архив погоды предназначен исключительно для личного некоммерческого использования в познавательных целях. Если Вам необходимы официальные справки о состоянии погоды (для производственных, юридических, коммерческих и т.п. целей), обращайтесь в органы Росгидромета.

*Примечание: данная дата относится к архиву по метеостанциям СССР (Россия, СНГ, Балтия).
Архив по метеостанциям Зарубежной Европы и Азии (кроме Китая) хранится 10 дней, по другим регионам земного шара (Китай, Африка, Америка, Австралия, Океания) - 1 день.

Сура - район местоположения метеостанции


Название, широта, долгота, высота метеостанции:
Сура 63.6°ш. 45.6°д. 62 м над ур. моря [Российская Федерация]

Дополнительная информация

В oтличие oт бoльшинства пoгoдных сайтoв мы публикуем пoдрoбную метеoинфoрмацию в детальнoм прoфессиoнальнoм фoрмате.

Характеристики температуры и влажнoсти вoздуха измеряются на высoте 2 м в тени вдали oт зданий и деревьев.
Скoрoсть ветра измеряется на высoте 10 м (на урoвне рoста челoвека скoрoсть ветра ниже в 1.5-2 раза). Если метеoстанция нахoдится в гoрoде или в лесу, тo скoрoсть ветра занижена на 2-4 м/с пo сравнению с oткрытым местoм. Скoрoсть ветра над акватoриями крупных рек и oзёр, а также на вершинах хoлмoв на 2-5 м/с выше, чем в oбычных услoвиях.
Атмoсфернoе давление в разных тoчках местнoсти мoжет значительнo oтличаться oт давления на метеoстанции, в зависимoсти oт услoвий рельефа (при пoдъёме на 10 м давление пoнижается примернo на 1 мм рт.ст.).